This is the latest recevied weather packets stored in our database for station/object W8AN. If no packets are shown the sender has not sent any weather packets the latest 10 day(s).
| Time | Temp. | Humidity | Pressure | Rain* | Wind** | Luminosity | Snow |
|---|---|---|---|---|---|---|---|
| 1778162834 | 10° C | 66% | 4268.6 hPa | 0 mm | - | 665 W/m² | - |
| 1778162533 | 9.44° C | 67% | 4268.6 hPa | 0 mm | - | 656 W/m² | - |
| 1778162229 | 8.89° C | 66% | 4268.6 hPa | 0 mm | - | 635 W/m² | - |
| 1778161927 | 8.89° C | 66% | 4268.5 hPa | 0 mm | - | 621 W/m² | - |
| 1778161623 | 8.89° C | 66% | 4268.6 hPa | 0 mm | - | 608 W/m² | - |
| 1778161319 | 8.89° C | 66% | 4268.6 hPa | 0 mm | - | 595 W/m² | - |
| 1778161015 | 8.89° C | 67% | 4268.6 hPa | 0 mm | - | 565 W/m² | - |
| 1778160712 | 8.33° C | 67% | 4268.5 hPa | 0 mm | - | 536 W/m² | - |
| 1778160410 | 8.33° C | 66% | 4268.5 hPa | 0 mm | - | 475 W/m² | - |
| 1778160106 | 8.33° C | 67% | 4268.5 hPa | 0 mm | - | 442 W/m² | - |
| 1778159803 | 7.78° C | 69% | 4268.6 hPa | 0 mm | - | 421 W/m² | - |
| 1778159500 | 7.78° C | 69% | 4268.8 hPa | 0 mm | - | 387 W/m² | - |
| 1778159197 | 7.78° C | 70% | 4268.7 hPa | 0 mm | - | 354 W/m² | - |
| 1778158895 | 7.78° C | 71% | 4268.9 hPa | 0 mm | - | 311 W/m² | - |
| 1778158593 | 7.22° C | 71% | 4268.8 hPa | 0 mm | - | 288 W/m² | - |
| 1778158291 | 7.22° C | 72% | 4268.8 hPa | 0 mm | - | 320 W/m² | - |
| 1778157986 | 7.22° C | 72% | 4268.8 hPa | 0 mm | - | 312 W/m² | - |
| 1778157684 | 6.67° C | 72% | 4268.8 hPa | 0 mm | - | 184 W/m² | - |
| 1778157382 | 6.67° C | 72% | 4268.5 hPa | 0 mm | - | 212 W/m² | - |
| 1778157079 | 6.67° C | 73% | 4268.6 hPa | 0 mm | - | 182 W/m² | - |
| 1778156774 | 6.67° C | 73% | 4268.5 hPa | 0 mm | - | 187 W/m² | - |
| 1778156470 | 6.67° C | 74% | 4268.6 hPa | 0 mm | - | 200 W/m² | - |
| 1778156166 | 6.11° C | 74% | 4268.7 hPa | 0 mm | - | 188 W/m² | - |
| 1778155862 | 6.11° C | 74% | 4268.7 hPa | 0 mm | - | 150 W/m² | - |
| 1778155558 | 6.11° C | 75% | 4268.8 hPa | 0 mm | - | 136 W/m² | - |
* Rain latest hour (hover to see other rain measurements)
** Current wind speed in m/s (hover to see current wind gust speed)